{"data":{"norad_id":51876,"intl_designator":"2022-022AA","name":"STARLINK-3583","alt_names":[],"object_type":"PAYLOAD","status":"ACTIVE","operator":null,"country":"US","launch_date":"2022-03-03","launch_site_code":"AFETR","launch_vehicle":null,"mission":null,"orbit_class":"UNKNOWN","rcs_meters":null,"size_class":null,"mass_kg":null,"dimensions":null,"purposes":["comms"],"wikipedia_slug":null,"has_3d_model":false,"image_url":null,"decayed_at":null,"tle_current":{"epoch":"2026-09-19T14:02:36.226464Z","epoch_age_seconds":131281,"freshness":"FRESH","line1":"1 51876U 22022AA  26262.58514151  .00000451  00000+0  23833-4 0  9995","line2":"2 51876  53.1596 208.5027 0001270  94.8166 265.2982 15.35399199252520","mean_motion":15.35399199,"eccentricity":0.000127,"inclination_deg":53.1596,"raan_deg":208.5027,"arg_perigee_deg":94.8166,"mean_anomaly_deg":265.2982,"bstar":2.3833e-5,"rev_number":25252,"period_min":93.786684331858,"perigee_km":458.86661115256,"apogee_km":460.60343064587,"semimajor_km":6837.8720208992,"source":"CELESTRAK","updated_at":"2026-09-20T09:00:39.949521Z"}}}